Weather History for Anchorage Merrill, AK

Change the Weather History Date:

Wednesday, February 8, 2012

  Actual Average Record
Temperature  
Mean Temperature 22 °F -  
Max Temperature 39 °F 25 °F 23 °F (2014)
Min Temperature 9 °F 13 °F 10 °F (2014)
Degree Days  
Heating Degree Days 42    
Moisture  
Dew Point 18 °F    
Average Humidity 77    
Maximum Humidity 88    
Minimum Humidity 66    
Precipitation  
Precipitation 0.00 in - - ()
Sea Level Pressure  
Sea Level Pressure 29.52 in    
Wind  
Wind Speed 2 mph (NNE)    
Max Wind Speed 8 mph    
Max Gust Speed -    
Visibility 10 miles    
Events      
Averages and records for this station are not official NWS values.
T = Trace of Precipitation, MM = Missing Value Source: NWS Daily Summary

Daily Weather History Graph

Daily Weather History Graph

Search for Another Location

Airport:

Trip Planner

Search our weather history database for the weather conditions in past years. The results will help you decide how hot, cold, wet, or windy it might be!

Date:

Astronomy

Feb. 08, 2012 Rise Set
Actual Time 9:02 AM AKST 5:25 PM AKST
Civil Twilight 8:14 AM AKST 6:13 PM AKST
Nautical Twilight 7:23 AM AKST 7:05 PM AKST
Astronomical Twilight 6:33 AM AKST 7:55 PM AKST
Moon 7:39 PM AKST (2/8) 8:37 AM AKST (2/8)
Length of Visible Light 9h 58m
Length of Day
8h 23m
Full, 99% of the Moon is Illuminated
Feb 8
Full
Feb 14
Last Quarter
Feb 21
New
Feb 29
First Quarter
Mar 8
Full

Hourly Weather History & Observations

Time (AKST) Temp. Windchill Dew Point Humidity Pressure Visibility Wind Dir Wind Speed Gust Speed Precip Events Conditions
12:53 AM 15.1 °F - 10.0 °F 80% 29.62 in 10.0 mi Calm Calm - N/A   Clear
1:53 AM 9.0 °F - 6.1 °F 88% 29.62 in 10.0 mi Calm Calm - N/A   Clear
2:53 AM 10.9 °F - 6.1 °F 81% 29.62 in 10.0 mi Calm Calm - N/A   Clear
3:53 AM 10.0 °F 1.8 °F 7.0 °F 87% 29.59 in 10.0 mi NE 4.6 mph - N/A   Clear
4:53 AM 14.0 °F - 9.0 °F 80% 29.58 in 10.0 mi Calm Calm - N/A   Clear
5:53 AM 9.0 °F - 6.1 °F 88% 29.56 in 10.0 mi Calm Calm - N/A   Partly Cloudy
6:53 AM 18.0 °F - 14.0 °F 84% 29.55 in 10.0 mi Calm Calm - N/A   Scattered Clouds
7:53 AM 19.0 °F - 16.0 °F 88% 29.55 in 10.0 mi Calm Calm - N/A   Mostly Cloudy
8:53 AM 21.9 °F - 17.1 °F 82% 29.56 in 10.0 mi Calm Calm - N/A   Overcast
9:53 AM 25.0 °F - 19.0 °F 78% 29.57 in 10.0 mi Calm Calm - 0.00 in   Mostly Cloudy
10:53 AM 26.1 °F 20.5 °F 19.0 °F 75% 29.55 in 10.0 mi ENE 4.6 mph - N/A   Mostly Cloudy
11:53 AM 27.0 °F - 19.0 °F 72% 29.55 in 10.0 mi Calm Calm - N/A   Mostly Cloudy
12:53 PM 28.0 °F 20.0 °F 18.0 °F 66% 29.55 in 10.0 mi NNE 8.1 mph - N/A   Mostly Cloudy
1:53 PM 28.0 °F 21.7 °F 18.0 °F 66% 29.52 in 10.0 mi North 5.8 mph - N/A   Mostly Cloudy
2:53 PM 30.0 °F 24.1 °F 19.9 °F 66% 29.50 in 10.0 mi North 5.8 mph - N/A   Mostly Cloudy
3:53 PM 30.0 °F 23.2 °F 19.9 °F 66% 29.49 in 10.0 mi North 6.9 mph - N/A   Mostly Cloudy
4:53 PM 28.9 °F 23.9 °F 19.9 °F 69% 29.47 in 10.0 mi North 4.6 mph - N/A   Mostly Cloudy
5:53 PM 30.0 °F 26.5 °F 19.9 °F 66% 29.46 in 10.0 mi NW 3.5 mph - N/A   Overcast
6:53 PM 28.0 °F 24.2 °F 21.0 °F 75% 29.43 in 10.0 mi South 3.5 mph - N/A   Mostly Cloudy
7:53 PM 28.9 °F 22.8 °F 23.0 °F 78% 29.42 in 10.0 mi SE 5.8 mph - N/A   Overcast
8:53 PM 30.0 °F 25.2 °F 25.0 °F 82% 29.42 in 10.0 mi Variable 4.6 mph - N/A   Overcast
9:53 PM 28.9 °F - 25.0 °F 85% 29.44 in 10.0 mi Calm Calm - N/A   Overcast
10:53 PM 36.0 °F 29.6 °F 30.0 °F 79% 29.44 in 10.0 mi North 8.1 mph - N/A   Mostly Cloudy
11:53 PM 39.0 °F 34.8 °F 30.9 °F 73% 29.48 in 10.0 mi NNW 5.8 mph - N/A   Scattered Clouds